This is the latest recevied weather packets stored in our database for station/object KC1TWD. If no packets are shown the sender has not sent any weather packets the latest 10 day(s).
| Time | Temp. | Humidity | Pressure | Rain* | Wind** | Luminosity | Snow |
|---|---|---|---|---|---|---|---|
| 1777648628 | 11.67° C | 53% | 1010.4 hPa | 0 mm | - | - | - |
| 1777648325 | 12.22° C | 48% | 1010.5 hPa | 0 mm | - | - | - |
| 1777648021 | 11.67° C | 51% | 1010.4 hPa | 0 mm | - | - | - |
| 1777647717 | 11.67° C | 51% | 1010.6 hPa | 0 mm | - | - | - |
| 1777647413 | 11.67° C | 49% | 1010.5 hPa | 0 mm | - | - | - |
| 1777647111 | 12.22° C | 50% | 1010.2 hPa | 0 mm | - | - | - |
| 1777646808 | 11.11° C | 51% | 1010.3 hPa | 0 mm | - | - | - |
| 1777646502 | 10.56° C | 52% | 1010.4 hPa | 0 mm | - | - | - |
| 1777646199 | 11.11° C | 53% | 1010.4 hPa | 0 mm | - | - | - |
| 1777645896 | 10.56° C | 58% | 1010.5 hPa | 0 mm | - | - | - |
| 1777645593 | 10.56° C | 57% | 1010.4 hPa | 0 mm | - | - | - |
| 1777645289 | 10° C | 55% | 1010.5 hPa | 0 mm | - | - | - |
| 1777644985 | 9.44° C | 56% | 1010.6 hPa | 0 mm | - | - | - |
| 1777644683 | 10° C | 56% | 1010.6 hPa | 0 mm | - | - | - |
| 1777644378 | 10° C | 55% | 1010.4 hPa | 0 mm | - | - | - |
| 1777644075 | 10.56° C | 54% | 1010.3 hPa | 0 mm | - | - | - |
| 1777643772 | 10.56° C | 54% | 1010 hPa | 0 mm | - | - | - |
| 1777643470 | 10.56° C | 55% | 1010.1 hPa | 0 mm | - | - | - |
| 1777643166 | 10.56° C | 57% | 1010.1 hPa | 0 mm | - | - | - |
| 1777642863 | 10.56° C | 57% | 1010.1 hPa | 0 mm | - | - | - |
| 1777642559 | 10.56° C | 59% | 1010 hPa | 0 mm | - | - | - |
| 1777642255 | 10° C | 58% | 1010.1 hPa | 0 mm | - | - | - |
| 1777641953 | 10° C | 57% | 1010.1 hPa | 0 mm | - | - | - |
| 1777641643 | 9.44° C | 60% | 1010.1 hPa | 0 mm | - | - | - |
| 1777641338 | 9.44° C | 61% | 1010 hPa | 0 mm | - | - | - |
* Rain latest hour (hover to see other rain measurements)
** Current wind speed in m/s (hover to see current wind gust speed)